Current weather by "City, St" or "zip code"  
 
Advertise Here

Current Conditions: Sterling Rockfalls, IL

Overcast


26.0 F

Last Updated on Jan 25 2021, 4:56 am CST
Humidity: 84%
Wind Speed: NE 11.5 mph
Barometer 30.08 in
Dewpoint: 21.9 F
Visibility: 10.00 mi
Precip: --
Heat Index: NA
Wind Chill: 15 F
Current conditions at:

Sterling Rockfalls, IL (KSQI)

Lat: 41.7432 Lon: 89.66547

Local Radar Image active severe weather and emergency alerts image image weather storm and storm spotter reports image weather observation monitoring service image
Local
Radar
Active
Alerts
Storm Reports Obs
Monitoring

Sign-up For Email & Text Message Weather Alert Notification Services


Advertise Here

Observation History for Sterling Rockfalls, IL


Time Wind
(mph)
Vis
(mi)
Weather Precip (in) Temperature (F) Relative
Humidity
Wind
Chill
(F)
Heat
Index
(F)
Pressure
Air Dwpt altimeter
(in)
sea level
(mb)
Rmks
4:56 am CST NE 11.5 10.00 Overcast -- 26.0 21.9 84% 15 NA 30.08 1005.4
3:56 am CST NE 12.7 10.00 Overcast -- 27.0 23.0 85% 16 NA 30.08 1005.4
2:56 am CST NE 10.4 10.00 Overcast -- 27.0 23.0 85% 17 NA 30.12 1006.7
1:56 am CST E 12.7 10.00 Overcast -- 28.0 24.1 85% 17 NA 30.12 1006.7
12:56 am CST E 8.1 10.00 Overcast -- 29.0 25.0 85% 21 NA 30.13 1006.9
11:56 pm CST NE 5.8 10.00 Overcast -- 29.0 26.1 89% 23 NA 30.10 1006.3
10:56 pm CST NE 8.1 10.00 Overcast -- 29.0 25.0 85% 21 NA 30.10 1006.0
9:56 pm CST NE 8.1 10.00 Overcast -- 30.0 25.0 82% 22 NA 30.10 1006.1
8:56 pm CST NE 9.2 10.00 Overcast -- 30.0 25.0 82% 22 NA 30.11 1006.4
7:56 pm CST NE 9.2 10.00 Overcast -- 30.0 26.1 85% 22 NA 30.10 1006.3
6:56 pm CST N 4.6 10.00 Overcast -- 31.0 26.1 82% 26 NA 30.12 1006.9
5:56 pm CST N 4.6 10.00 Partly Cloudy -- 30.0 26.1 85% 25 NA 30.10 1006.3
4:56 pm CST N 6.9 10.00 Overcast -- 31.0 27.0 85% 24 NA 30.08 1005.4
3:56 pm CST N 6.9 10.00 Overcast -- 32.0 27.0 82% 26 NA 30.08 1005.4
2:56 pm CST N 8.1 10.00 Partly Cloudy -- 33.0 26.1 75% 26 NA 30.06 1004.7
1:56 pm CST W 6.9 10.00 Mostly Cloudy -- 35.0 27.0 72% 29 NA 30.05 1004.3
12:56 pm CST SW 3.5 10.00 Overcast -- 32.0 27.0 82% NA NA 30.05 1004.4
11:56 am CST N 0.0 10.00 Overcast -- 31.0 26.1 82% NA NA 30.05 1004.6
10:56 am CST E 3.5 10.00 Overcast -- 32.0 27.0 82% NA NA 30.08 1005.3
9:56 am CST SE 5.8 10.00 Overcast -- 30.0 26.1 85% 24 NA 30.07 1005.3
8:56 am CST E 4.6 10.00 Overcast -- 28.0 26.1 92% 23 NA 30.07 1005.0
7:56 am CST SE 5.8 10.00 Overcast Trace 27.0 26.1 96% 20 NA 30.06 1004.9
6:56 am CST SE 4.6 9.00 Light Snow Trace 27.0 26.1 96% 22 NA 30.06 1004.7
5:56 am CST SE 4.6 8.00 Unknown Precip Trace 27.0 26.1 96% 22 NA 30.06 1004.8

Regional Weather Observation


Tri-Township Airport, IL (KSFY)

Mostly Cloudy
19.0 F

Clinton Municipal Airport, IA (KCWI)

Partly Cloudy
20.0 F

Albertus Airport, IL (KFEP)

Fog/Mist
12.0 F

Rochelle, Rochelle Municipal-Koritz Field Airport, IL (KRPJ)

Overcast
25.0 F

Rockford, Greater Rockford Airport, IL (KRFD)

Overcast
22.0 F

Davenport Municipal Airport, IA (KDVN)

Overcast
27.0 F